Regional Weather Roundup
Issued by NWS

Home | Current Version | Previous Version | Graphics & Text | Print | Product List | Glossary On
Versions: 1 2 3 4 5 6 7 8 9 10 11 12 13 14 15 16 17 18 19 20 21 22 23 24 25 26 27 28 29 30 31 32 33 34 35 36 37 38 39 40 41 42 43 44 45 46 47 48 49 50
000
ASUS43 KOAX 290202
RWRNE

WEATHER ROUNDUP FOR NEBRASKA
NATIONAL WEATHER SERVICE OMAHA NE
900 PM CDT SAT MAR 28 2015

NOTES: SATELLITE DATA IS BEING USED TO AUGMENT CLOUD COVER ABOVE
       12000 FEET.
       "FAIR" INDICATES FEW OR NO CLOUDS BELOW 12,000 FEET WITH NO
       SIGNIFICANT WEATHER AND/OR OBSTRUCTIONS TO VISIBILITY.

  * THESE STATIONS DO NOT REPORT WEATHER SUCH AS RAIN...SNOW OR FOG.

NEZ001>004-019>022-054>056-290300-
NEBRASKA PANHANDLE

CITY           SKY/WX    TMP DP  RH WIND       PRES   REMARKS
SCOTTSBLUFF    MOCLDY    74  24  15 W17G25    29.76R
ALLIANCE       PTCLDY    63  28  26 SW13      29.72S
CHADRON        MOCLDY    72  27  18 W15       29.65R
KIMBALL        MOCLDY    67  23  18 W14       29.85R
SIDNEY         PTCLDY    67  23  19 W14       29.82S
$$

NEZ057>060-069>072-079>082-290300-
SOUTHWEST NEBRASKA

CITY           SKY/WX    TMP DP  RH WIND       PRES   REMARKS
NORTH PLATTE   CLEAR     60  36  40 E14       29.78S
IMPERIAL       PTCLDY    70  24  17 S14       29.77F
LEXINGTON      CLEAR     60  36  39 SE21      29.82F
MCCOOK         CLEAR     69  36  29 S20G26    29.79F
OGALLALA       PTCLDY    68  29  23 SW7       29.75R
$$

NEZ005>010-023>029-035>040-094-290300-
NORTH CENTRAL NEBRASKA

CITY           SKY/WX    TMP DP  RH WIND       PRES   REMARKS
VALENTINE      CLEAR     67  35  30 S25G31    29.63F
AINSWORTH      CLEAR     61  35  36 S23G29    29.70F
BROKEN BOW     CLEAR     59  36  42 S17       29.81S
O`NEILL        CLEAR     54  35  49 SE21G26   29.79F
ORD            CLEAR     55  33  43 SE12      29.83S
$$

NEZ041-046>049-061>064-073>077-083>087-290300-
SOUTH CENTRAL NEBRASKA

CITY           SKY/WX    TMP DP  RH WIND       PRES   REMARKS
GRAND ISLAND   CLEAR     53  34  48 SE15      29.89F
AURORA         CLEAR     50  33  52 SE14      29.91F
HASTINGS       CLEAR     54  34  46 SE16      29.89F
HEBRON         CLEAR     50  33  52 SE9       29.96S
HOLDREGE       CLEAR     56  35  43 SE17      29.85F
KEARNEY *      CLEAR     55  34  44 SE18      29.86F
YORK           MOCLDY    48  36  61 SE14      29.94F
$$

NEZ011>018-030>034-042>045-290300-
NORTHEAST NEBRASKA

CITY           SKY/WX    TMP DP  RH WIND       PRES   REMARKS
NORFOLK        CLEAR     48  34  58 SE16      29.90F
ALBION         CLEAR     49  33  54 SE16      29.89F
BLAIR          CLEAR     48  32  52 S13G21    29.99F
COLUMBUS *     CLEAR     46  32  57 SE10      29.96F
FREMONT        CLEAR     49  33  54 SE15G21   29.98F
TEKAMAH        CLEAR     44  29  55 SE14      29.98F
WAYNE          CLEAR     45  32  60 S15       29.94S
$$

NEZ050>053-065>068-078-088>093-290300-
SOUTHEAST NEBRASKA

CITY           SKY/WX    TMP DP  RH WIND       PRES   REMARKS
LINCOLN        CLEAR     49  34  56 SE13      30.00S
OMAHA EPPLEY   CLEAR     47  32  56 SE20      30.01F
BEATRICE       CLEAR     49  34  56 SE12G17   30.00S
FALLS CITY     CLEAR     45  31  58 SE10      30.06S
NEBRASKA CITY  CLEAR     46  30  55 SE13      30.03S
PLATTSMOUTH    CLEAR     45  31  56 SE9       30.02S
$$

NEZ044-045-051>053-067-290300-
OMAHA AREA

CITY           SKY/WX    TMP DP  RH WIND       PRES   REMARKS
OMAHA EPPLEY   CLEAR     47  32  56 SE20      30.01F
BLAIR          CLEAR     48  32  52 S13G21    29.99F
FREMONT        CLEAR     49  33  54 SE15G21   29.98F
MILLARD        CLEAR     47  33  57 SE13      30.01S
OFFUTT AFB     CLEAR     44  32  62 SE12      30.01F
PLATTSMOUTH    CLEAR     45  31  56 SE9       30.02S
WAHOO          FAIR      46  32  58 SE15      29.98S
$$



USA.gov is the U.S. government's official web portal to all federal, state and local government web resources and services.